Weather History for Binghamton, NY

Change the Weather History Date:

Friday, October 19, 2012

  Actual Average Record
Temperature  
Mean Temperature 55 °F 47 °F  
Max Temperature 62 °F 56 °F 77 °F (1963)
Min Temperature 47 °F 39 °F 20 °F (1974)
Degree Days  
Heating Degree Days 10 18  
Month to date heating degree days 282 279  
Since 1 July heating degree days 496 536  
Cooling Degree Days 0 0  
Month to date cooling degree days 1 0  
Year to date cooling degree days 548 379  
Growing Degree Days 4 (Base 50)    
Moisture  
Dew Point 51 °F    
Average Humidity 92    
Maximum Humidity 100    
Minimum Humidity 84    
Precipitation  
Precipitation 1.03 in 0.10 in 1.81 in (1996)
Month to date precipitation 1.88 2.08  
Year to date precipitation 31.18 31.92  
Snow  
Snow 0.00 in 0.10 in 1.70 in (1972)
Month to date snowfall T 0.3  
Since 1 July snowfall T 0.3  
Since 1 September snowfall T 0.3  
Snow Depth 0.00 in    
Sea Level Pressure  
Sea Level Pressure 29.76 in    
Wind  
Wind Speed 5 mph (ESE)    
Max Wind Speed 21 mph    
Max Gust Speed 28 mph    
Visibility 6 miles    
Events Fog , Rain , Thunderstorm    
T = Trace of Precipitation, MM = Missing Value Source: NWS Daily Summary

Daily Weather History Graph

Daily Weather History Graph

Search for Another Location

Airport:

Trip Planner

Search our weather history database for the weather conditions in past years. The results will help you decide how hot, cold, wet, or windy it might be!

Date:

Astronomy

Oct. 19, 2012 Rise Set
Actual Time 7:21 AM EDT 6:15 PM EDT
Civil Twilight 6:53 AM EDT 6:43 PM EDT
Nautical Twilight 6:20 AM EDT 7:16 PM EDT
Astronomical Twilight 5:48 AM EDT 7:48 PM EDT
Moon 12:06 PM EDT (10/19) 9:47 PM EDT (10/19)
Length of Visible Light 11h 50m
Length of Day
10h 53m
Waxing Crescent, 23% of the Moon is Illuminated
Oct 19
Waxing Crescent
Oct 21
First Quarter
Oct 29
Full
Nov 6
Last Quarter
Nov 13
New

Hourly Weather History & Observations

Time (EDT) Temp. Dew Point Humidity Pressure Visibility Wind Dir Wind Speed Gust Speed Precip Events Conditions
12:26 AM 53.6 °F 51.8 °F 94% 29.85 in 9.0 mi SSE 16.1 mph 24.2 mph 0.03 in Rain Light Rain
12:53 AM 54.0 °F 52.0 °F 93% 29.83 in - SE 17.3 mph 24.2 mph 0.05 in Rain Rain
1:01 AM 53.6 °F 51.8 °F 94% 29.84 in 8.0 mi SSE 16.1 mph 24.2 mph 0.01 in Rain , Thunderstorm Light Rain
1:13 AM 53.6 °F 51.8 °F 94% 29.85 in 10.0 mi South 11.5 mph - N/A Thunderstorm Unknown
1:26 AM 53.6 °F 51.8 °F 94% 29.85 in 7.0 mi SSE 12.7 mph 21.9 mph 0.02 in Rain , Thunderstorm Rain
1:34 AM 53.6 °F 51.8 °F 94% 29.85 in 7.0 mi SSE 12.7 mph - 0.03 in Rain Rain
1:46 AM 53.6 °F 51.8 °F 94% 29.85 in - SSE 11.5 mph 20.7 mph 0.04 in Rain Light Rain
1:53 AM 54.0 °F 52.0 °F 93% 29.85 in 7.0 mi SSE 10.4 mph 20.7 mph 0.04 in Rain Rain
2:18 AM 53.6 °F 51.8 °F 94% 29.87 in 5.0 mi WSW 13.8 mph 19.6 mph 0.08 in Rain Rain
2:30 AM 50.0 °F 46.4 °F 87% 29.87 in 2.5 mi NW 8.1 mph 26.5 mph 0.19 in Rain Heavy Rain
2:38 AM 48.2 °F 46.4 °F 93% 29.87 in 8.0 mi NW 8.1 mph 18.4 mph 0.20 in Rain Light Rain
2:48 AM 48.2 °F 46.4 °F 93% 29.87 in 10.0 mi NNW 11.5 mph 21.9 mph 0.21 in Rain Light Rain
2:53 AM 48.9 °F 46.0 °F 90% 29.88 in 10.0 mi NNW 10.4 mph - 0.21 in Rain Light Rain
3:53 AM 48.0 °F 46.0 °F 93% 29.85 in 10.0 mi NNE 8.1 mph - 0.01 in Rain Light Rain
4:53 AM 48.0 °F 46.0 °F 93% 29.84 in 10.0 mi ENE 8.1 mph - 0.00 in Rain Light Rain
5:25 AM 48.2 °F 46.4 °F 93% 29.81 in 10.0 mi East 10.4 mph - 0.01 in   Overcast
5:53 AM 46.9 °F 46.0 °F 97% 29.81 in 10.0 mi East 9.2 mph - 0.01 in   Mostly Cloudy
6:06 AM 48.2 °F 46.4 °F 93% 29.81 in 10.0 mi East 6.9 mph - N/A   Overcast
6:33 AM 48.2 °F 46.4 °F 93% 29.81 in 10.0 mi ENE 4.6 mph - N/A   Overcast
6:50 AM 48.2 °F 46.4 °F 93% 29.81 in 10.0 mi ENE 4.6 mph - N/A   Overcast
6:53 AM 48.0 °F 46.9 °F 96% 29.81 in 10.0 mi NE 4.6 mph - N/A   Overcast
7:13 AM 48.2 °F 48.2 °F 100% 29.79 in 1.8 mi NNE 4.6 mph - N/A   Overcast
7:24 AM 50.0 °F 48.2 °F 94% 29.79 in 0.5 mi ENE 3.5 mph - N/A Fog Fog
7:51 AM 50.0 °F 48.2 °F 94% 29.80 in 0.2 mi ESE 4.6 mph - N/A Fog Fog
7:53 AM 50.0 °F 48.9 °F 96% 29.81 in 0.2 mi East 5.8 mph - N/A Fog Fog
7:57 AM 50.0 °F 48.2 °F 94% 29.80 in 1.0 mi East 5.8 mph - N/A   Mist
8:02 AM 50.0 °F 48.2 °F 94% 29.80 in 3.0 mi East 3.5 mph - N/A   Overcast
8:09 AM 50.0 °F 48.2 °F 94% 29.78 in 1.5 mi ENE 6.9 mph - N/A   Overcast
8:17 AM 50.0 °F 48.2 °F 94% 29.78 in 0.8 mi East 8.1 mph - N/A   Overcast
8:21 AM 51.8 °F 48.2 °F 88% 29.79 in 2.5 mi ESE 8.1 mph - N/A   Overcast
8:28 AM 51.8 °F 50.0 °F 94% 29.78 in 10.0 mi East 5.8 mph - N/A   Overcast
8:44 AM 51.8 °F 50.0 °F 94% 29.77 in 7.0 mi East 3.5 mph - 0.00 in Rain Light Rain
8:53 AM 51.1 °F 50.0 °F 96% 29.78 in 7.0 mi East 4.6 mph - 0.00 in Rain Light Rain
9:11 AM 51.8 °F 50.0 °F 94% 29.79 in 3.0 mi Calm Calm - 0.01 in Rain Rain
9:18 AM 51.8 °F 51.8 °F 100% 29.78 in 2.5 mi Calm Calm - 0.03 in Rain Rain
9:26 AM 51.8 °F 51.8 °F 100% 29.78 in 9.0 mi Calm Calm - 0.04 in Rain Light Rain
9:36 AM 51.8 °F 51.8 °F 100% 29.77 in 0.8 mi Calm Calm - 0.04 in Rain Light Rain
9:43 AM 51.8 °F 51.8 °F 100% 29.77 in 0.2 mi NNW 4.6 mph - 0.05 in Fog , Rain Light Rain
9:53 AM 51.1 °F 50.0 °F 96% 29.77 in 0.2 mi NNW 3.5 mph - 0.11 in Fog , Rain Heavy Rain
10:00 AM 51.8 °F 48.2 °F 88% 29.78 in 1.0 mi Calm Calm - 0.07 in Rain Light Rain
10:05 AM 51.8 °F 50.0 °F 94% 29.79 in 0.5 mi West 6.9 mph - 0.07 in Fog , Rain Heavy Rain
10:12 AM 50.0 °F 48.2 °F 94% 29.80 in 0.1 mi West 12.7 mph - 0.15 in Fog , Rain Heavy Rain
10:24 AM 51.8 °F 50.0 °F 94% 29.77 in 0.8 mi NE 4.6 mph - 0.32 in Rain Heavy Rain
10:31 AM 51.8 °F 51.8 °F 100% 29.77 in 1.0 mi North 3.5 mph - 0.35 in Rain Light Rain
10:34 AM 51.8 °F 51.8 °F 100% 29.77 in 2.5 mi NW 5.8 mph - 0.35 in Rain Light Rain
10:43 AM 51.8 °F 50.0 °F 94% 29.77 in 0.5 mi NW 5.8 mph - 0.36 in Fog , Rain Light Rain
10:48 AM 51.8 °F 51.8 °F 100% 29.77 in 3.0 mi NNW 5.8 mph - 0.36 in Rain Light Rain
10:53 AM 52.0 °F 51.1 °F 97% 29.77 in 0.5 mi North 5.8 mph - 0.36 in Fog , Rain Light Rain
11:03 AM 51.8 °F 51.8 °F 100% 29.76 in 0.5 mi NE 5.8 mph - 0.01 in Fog , Rain Light Rain
11:35 AM 51.8 °F 51.8 °F 100% 29.75 in 0.2 mi East 10.4 mph - 0.01 in Fog , Rain Light Rain
11:53 AM 52.0 °F 51.1 °F 97% 29.74 in 0.5 mi East 12.7 mph - 0.03 in Fog , Rain Light Rain
12:34 PM 55.4 °F 53.6 °F 94% 29.73 in 2.0 mi SSE 3.5 mph - 0.03 in   Overcast
12:53 PM 55.0 °F 54.0 °F 96% 29.72 in 3.0 mi SE 4.6 mph - 0.03 in   Overcast
1:15 PM 55.4 °F 53.6 °F 94% 29.72 in 3.0 mi SSE 3.5 mph - N/A   Overcast
1:25 PM 55.4 °F 53.6 °F 94% 29.71 in 3.0 mi SSE 3.5 mph - N/A   Overcast
1:53 PM 57.0 °F 55.0 °F 93% 29.70 in 8.0 mi SE 5.8 mph - 0.00 in   Overcast
2:53 PM 57.0 °F 55.9 °F 96% 29.70 in 10.0 mi Calm Calm - 0.00 in Rain Light Rain
3:40 PM 60.8 °F 57.2 °F 88% 29.68 in 10.0 mi Variable 4.6 mph - 0.00 in   Overcast
3:53 PM 62.1 °F 59.0 °F 90% 29.68 in 10.0 mi SSW 8.1 mph - 0.00 in   Overcast
4:17 PM 62.6 °F 57.2 °F 82% 29.67 in 10.0 mi SW 6.9 mph - N/A   Mostly Cloudy
4:26 PM 62.6 °F 57.2 °F 82% 29.67 in 10.0 mi WSW 5.8 mph - N/A   Scattered Clouds
4:53 PM 62.1 °F 57.9 °F 86% 29.66 in 10.0 mi SW 4.6 mph - N/A   Partly Cloudy
5:53 PM 60.1 °F 55.9 °F 86% 29.65 in 10.0 mi SW 4.6 mph - N/A   Partly Cloudy
6:53 PM 59.0 °F 55.9 °F 90% 29.65 in 10.0 mi West 4.6 mph - N/A   Mostly Cloudy
7:53 PM 59.0 °F 55.9 °F 90% 29.65 in 10.0 mi Calm Calm - N/A   Mostly Cloudy
8:44 PM 55.4 °F 53.6 °F 94% 29.65 in 1.8 mi Calm Calm - N/A   Partly Cloudy
8:53 PM 57.0 °F 55.9 °F 96% 29.65 in 10.0 mi Calm Calm - N/A   Partly Cloudy
9:53 PM 55.4 °F 53.6 °F 94% 29.64 in 10.0 mi Calm Calm - N/A   Mostly Cloudy
10:06 PM 55.4 °F 53.6 °F 94% 29.63 in 10.0 mi Calm Calm - N/A   Mostly Cloudy
10:16 PM 55.4 °F 55.4 °F 100% 29.65 in 9.0 mi Calm Calm - N/A Thunderstorm Mostly Cloudy
10:34 PM 55.4 °F 51.8 °F 88% 29.67 in 1.8 mi SSW 11.5 mph 21.9 mph 0.11 in Rain , Thunderstorm Heavy Thunderstorms and Rain
10:42 PM 55.4 °F 51.8 °F 88% 29.66 in 3.0 mi South 15.0 mph 23.0 mph 0.17 in Rain , Thunderstorm Heavy Thunderstorms and Rain
10:49 PM 55.4 °F 51.8 °F 88% 29.65 in 4.0 mi South 10.4 mph 21.9 mph 0.20 in Rain , Thunderstorm Thunderstorms and Rain
10:53 PM 55.0 °F 51.1 °F 86% 29.65 in 6.0 mi South 9.2 mph 18.4 mph 0.21 in Rain , Thunderstorm Thunderstorms and Rain
11:16 PM 53.6 °F 51.8 °F 94% 29.65 in 10.0 mi SSE 5.8 mph - 0.03 in Rain Light Rain
11:53 PM 53.1 °F 50.0 °F 89% 29.64 in 10.0 mi Calm Calm - 0.03 in   Overcast